AAL1015 KMIA-KPHL

Flight info

Callsign AAL1015
Flight time N/A
Altitude 37000
Route FOLZZ3 ALYRA PELCN Y309 FLRDA IDOLS SKARP Q101 KALDA ZJAAY JIIMS4
Aircraft A320/M-SDE3FGHIRWY/LB1

Departure

Time 2026-05-05 07:32
Airport Miami International Airport (KMIA)

Arrival

Time N/A
Airport Philadelphia International Airport (KPHL)
Time Latitude Longitude Altitude Speed Heading
2026-05-05 06:48 25.79704 -80.28176 20 ft 0 kts 21°
2026-05-05 07:17 25.79683 -80.28185 23 ft 4 kts 24°
2026-05-05 07:18 25.79658 -80.28193 22 ft 4 kts 352°
2026-05-05 07:18 25.79638 -80.28181 25 ft 4 kts 295°
2026-05-05 07:18 25.79634 -80.28170 23 ft 1 kts 288°
2026-05-05 07:23 25.79637 -80.28180 25 ft 4 kts 288°
2026-05-05 07:23 25.79651 -80.28218 21 ft 7 kts 295°
2026-05-05 07:23 25.79671 -80.28274 20 ft 9 kts 284°
2026-05-05 07:23 25.79673 -80.28345 21 ft 10 kts 268°
2026-05-05 07:24 25.79671 -80.28425 21 ft 11 kts 268°
2026-05-05 07:24 25.79668 -80.28511 21 ft 12 kts 268°
2026-05-05 07:24 25.79651 -80.28598 22 ft 12 kts 260°
2026-05-05 07:24 25.79637 -80.28689 23 ft 12 kts 261°
2026-05-05 07:25 25.79647 -80.28782 26 ft 12 kts 298°
2026-05-05 07:25 25.79728 -80.28813 24 ft 13 kts 356°
2026-05-05 07:25 25.79823 -80.28819 24 ft 14 kts 358°
2026-05-05 07:25 25.79915 -80.28807 26 ft 13 kts 36°
2026-05-05 07:26 25.79937 -80.28712 26 ft 14 kts 88°
2026-05-05 07:26 25.79942 -80.28595 23 ft 17 kts 87°
2026-05-05 07:26 25.79947 -80.28456 20 ft 20 kts 88°
2026-05-05 07:26 25.79996 -80.28331 19 ft 19 kts 18°
2026-05-05 07:27 25.80050 -80.28377 21 ft 6 kts 255°
2026-05-05 07:27 25.80035 -80.28430 21 ft 8 kts 254°
2026-05-05 07:27 25.80028 -80.28492 20 ft 8 kts 266°
2026-05-05 07:27 25.80025 -80.28552 22 ft 8 kts 268°
2026-05-05 07:28 25.80024 -80.28611 24 ft 7 kts 270°
2026-05-05 07:28 25.80023 -80.28660 25 ft 6 kts 267°
2026-05-05 07:28 25.80020 -80.28723 26 ft 13 kts 266°
2026-05-05 07:28 25.80013 -80.28831 26 ft 15 kts 267°
2026-05-05 07:29 25.80010 -80.28957 25 ft 17 kts 268°
2026-05-05 07:29 25.80005 -80.29095 25 ft 18 kts 267°
2026-05-05 07:29 25.79999 -80.29237 25 ft 19 kts 267°
2026-05-05 07:29 25.79992 -80.29396 20 ft 23 kts 268°
2026-05-05 07:30 25.79985 -80.29581 17 ft 25 kts 266°
2026-05-05 07:30 25.79983 -80.29971 15 ft 27 kts 285°
2026-05-05 07:30 25.80082 -80.30077 18 ft 18 kts 28°
2026-05-05 07:31 25.80087 -80.30044 17 ft 11 kts 97°
2026-05-05 07:31 25.80083 -80.29839 17 ft 57 kts 87°
2026-05-05 07:31 25.80116 -80.29066 25 ft 139 kts 87°
2026-05-05 07:31 25.80177 -80.27774 302 ft 183 kts 86°
2026-05-05 07:32 25.80199 -80.26306 1054 ft 201 kts 93°
2026-05-05 07:32 25.79804 -80.24732 1438 ft 225 kts 113°
2026-05-05 07:32 25.79111 -80.23102 1818 ft 246 kts 115°
2026-05-05 07:32 25.78326 -80.21349 2460 ft 254 kts 116°
2026-05-05 07:33 25.77521 -80.19580 3158 ft 260 kts 116°
2026-05-05 07:33 25.76689 -80.17757 3802 ft 269 kts 117°
2026-05-05 07:33 25.75799 -80.15902 4484 ft 275 kts 118°
2026-05-05 07:33 25.74914 -80.14024 5132 ft 282 kts 112°
2026-05-05 07:34 25.74525 -80.11875 5781 ft 288 kts 89°
2026-05-05 07:34 25.74895 -80.09694 6475 ft 291 kts 66°
2026-05-05 07:34 25.75984 -80.07807 7103 ft 293 kts 47°
2026-05-05 07:34 25.77346 -80.06099 7739 ft 298 kts 46°
2026-05-05 07:35 25.78733 -80.04358 8377 ft 303 kts 46°
2026-05-05 07:35 25.80128 -80.02602 8981 ft 309 kts 46°
2026-05-05 07:35 25.81562 -80.00789 9592 ft 315 kts 47°
2026-05-05 07:35 25.83021 -79.98940 9920 ft 321 kts 47°
2026-05-05 07:36 25.84509 -79.97052 10004 ft 335 kts 47°
2026-05-05 07:36 25.86088 -79.95049 10114 ft 355 kts 47°
2026-05-05 07:36 25.87760 -79.92926 10253 ft 374 kts 47°
2026-05-05 07:36 25.89499 -79.90717 10657 ft 382 kts 47°
2026-05-05 07:37 25.91259 -79.88476 11229 ft 386 kts 47°
2026-05-05 07:37 25.93031 -79.86217 11792 ft 390 kts 47°
2026-05-05 07:37 25.94821 -79.83933 12348 ft 393 kts 47°
2026-05-05 07:37 25.96625 -79.81627 12906 ft 397 kts 47°
2026-05-05 07:38 25.98446 -79.79303 13414 ft 400 kts 46°
2026-05-05 07:38 26.00289 -79.76954 13896 ft 405 kts 46°
2026-05-05 07:38 26.02150 -79.74583 14358 ft 409 kts 46°
2026-05-05 07:38 26.04031 -79.72184 14820 ft 412 kts 46°
2026-05-05 07:39 26.05898 -79.69800 15284 ft 416 kts 46°
2026-05-05 07:39 26.07807 -79.67360 15737 ft 419 kts 46°
2026-05-05 07:39 26.09728 -79.64898 16208 ft 422 kts 46°
2026-05-05 07:39 26.11537 -79.62303 16653 ft 428 kts 52°
2026-05-05 07:40 26.13255 -79.59583 17119 ft 431 kts 52°
2026-05-05 07:40 26.14986 -79.56850 17577 ft 434 kts 52°
2026-05-05 07:40 26.16718 -79.54129 18022 ft 437 kts 52°
2026-05-05 07:40 26.18485 -79.51353 18460 ft 441 kts 52°
2026-05-05 07:41 26.20256 -79.48563 18875 ft 442 kts 52°
2026-05-05 07:41 26.22032 -79.45761 19262 ft 444 kts 52°
2026-05-05 07:41 26.23820 -79.42940 19649 ft 447 kts 51°
2026-05-05 07:41 26.25618 -79.40100 20006 ft 451 kts 51°
2026-05-05 07:42 26.27468 -79.37263 20372 ft 452 kts 47°
2026-05-05 07:42 26.29614 -79.34734 20717 ft 449 kts 37°
2026-05-05 07:42 26.32082 -79.32628 21073 ft 445 kts 27°
2026-05-05 07:42 26.34700 -79.30774 21445 ft 446 kts 26°
2026-05-05 07:43 26.37330 -79.28915 21816 ft 449 kts 26°
2026-05-05 07:43 26.39974 -79.27043 22187 ft 451 kts 26°
2026-05-05 07:43 26.42625 -79.25162 22553 ft 453 kts 26°
2026-05-05 07:43 26.45292 -79.23264 22916 ft 456 kts 26°
2026-05-05 07:44 26.47964 -79.21355 23331 ft 457 kts 26°
2026-05-05 07:44 26.50649 -79.19435 23704 ft 459 kts 26°
2026-05-05 07:44 26.53344 -79.17507 24035 ft 460 kts 26°
2026-05-05 07:44 26.56040 -79.15576 24373 ft 461 kts 26°
2026-05-05 07:45 26.58747 -79.13639 24726 ft 462 kts 26°
2026-05-05 07:45 26.61453 -79.11703 25073 ft 463 kts 26°
2026-05-05 07:45 26.64166 -79.09757 25418 ft 464 kts 26°
2026-05-05 07:45 26.66885 -79.07804 25753 ft 465 kts 26°
2026-05-05 07:46 26.69614 -79.05844 26091 ft 466 kts 25°
2026-05-05 07:46 26.72310 -79.03911 26387 ft 468 kts 26°
2026-05-05 07:46 26.75059 -79.01944 26708 ft 470 kts 25°
2026-05-05 07:46 26.77813 -78.99969 27017 ft 471 kts 25°
2026-05-05 07:47 26.80582 -78.97982 27331 ft 473 kts 25°
2026-05-05 07:47 26.83352 -78.95990 27641 ft 474 kts 25°
2026-05-05 07:47 26.86131 -78.93989 27948 ft 476 kts 25°
2026-05-05 07:47 26.88916 -78.91980 28254 ft 477 kts 25°
2026-05-05 07:48 26.91708 -78.89967 28538 ft 478 kts 25°
2026-05-05 07:48 26.94513 -78.87947 28813 ft 479 kts 25°
2026-05-05 07:48 26.97322 -78.85928 29077 ft 480 kts 25°
2026-05-05 07:48 27.00132 -78.83904 29319 ft 481 kts 25°
2026-05-05 07:49 27.02953 -78.81870 29603 ft 482 kts 25°
2026-05-05 07:49 27.05787 -78.79824 29820 ft 484 kts 25°
2026-05-05 07:49 27.08615 -78.77777 30102 ft 483 kts 25°
2026-05-05 07:49 27.11437 -78.75728 30367 ft 482 kts 24°
2026-05-05 07:50 27.14252 -78.73685 30652 ft 481 kts 24°
2026-05-05 07:50 27.17054 -78.71651 30939 ft 479 kts 24°
2026-05-05 07:50 27.19846 -78.69627 31236 ft 477 kts 24°
2026-05-05 07:50 27.22630 -78.67611 31491 ft 476 kts 25°
2026-05-05 07:51 27.25433 -78.65622 31689 ft 473 kts 21°
2026-05-05 07:51 27.28373 -78.64060 31923 ft 462 kts 12°
2026-05-05 07:51 27.31414 -78.63051 32186 ft 450 kts
2026-05-05 07:51 27.34479 -78.62548 32454 ft 443 kts 358°
2026-05-05 07:52 27.37498 -78.62167 32729 ft 441 kts 358°
2026-05-05 07:52 27.40550 -78.61776 33009 ft 440 kts 358°
2026-05-05 07:52 27.43586 -78.61382 33288 ft 438 kts 358°
2026-05-05 07:52 27.46616 -78.60985 33568 ft 437 kts 358°
2026-05-05 07:53 27.49630 -78.60590 33837 ft 435 kts 358°
2026-05-05 07:53 27.52634 -78.60197 34109 ft 434 kts 358°
2026-05-05 07:53 27.55633 -78.59811 34336 ft 433 kts 358°
2026-05-05 07:53 27.58620 -78.59427 34544 ft 432 kts 358°
2026-05-05 07:54 27.61604 -78.59042 34827 ft 431 kts 358°
2026-05-05 07:54 27.64578 -78.58656 35059 ft 430 kts 357°
2026-05-05 07:54 27.67547 -78.58265 35271 ft 429 kts 357°
2026-05-05 07:54 27.70511 -78.57876 35473 ft 429 kts 357°
2026-05-05 07:55 27.73471 -78.57487 35679 ft 428 kts 357°
2026-05-05 07:55 27.76436 -78.57099 35875 ft 428 kts 356°
2026-05-05 07:55 27.79394 -78.56714 36068 ft 428 kts 356°
2026-05-05 07:55 27.82312 -78.56335 36247 ft 427 kts 356°
2026-05-05 07:56 27.85301 -78.55946 36455 ft 427 kts 356°
2026-05-05 07:56 27.88253 -78.55561 36621 ft 427 kts 356°
2026-05-05 07:56 27.91170 -78.55181 36822 ft 427 kts 356°
2026-05-05 07:56 27.94121 -78.54797 36984 ft 427 kts 356°
2026-05-05 07:57 28.00037 -78.54024 37043 ft 428 kts 356°
2026-05-05 07:57 28.05964 -78.53245 37043 ft 428 kts 356°
2026-05-05 07:58 28.10891 -78.52591 37046 ft 429 kts 356°
2026-05-05 07:58 28.16817 -78.51811 37046 ft 428 kts 356°
2026-05-05 07:59 28.22752 -78.51041 37051 ft 429 kts 356°
2026-05-05 07:59 28.28696 -78.50266 37048 ft 430 kts 356°
2026-05-05 08:00 28.34651 -78.49478 37056 ft 430 kts 356°
2026-05-05 08:00 28.40601 -78.48692 37062 ft 431 kts 356°
2026-05-05 08:01 28.46564 -78.47900 37072 ft 431 kts 356°
2026-05-05 08:01 28.52507 -78.47110 37062 ft 433 kts 357°
2026-05-05 08:02 28.58494 -78.46316 37057 ft 434 kts 357°
2026-05-05 08:02 28.64495 -78.45520 37064 ft 434 kts 357°
2026-05-05 08:03 28.70512 -78.44725 37072 ft 435 kts 357°
2026-05-05 08:03 28.76532 -78.43925 37103 ft 437 kts 358°
2026-05-05 08:04 28.82571 -78.43117 37066 ft 437 kts 358°
2026-05-05 08:04 28.88629 -78.42309 37073 ft 438 kts 358°
2026-05-05 08:05 28.94660 -78.41506 37076 ft 439 kts 358°
2026-05-05 08:05 29.00733 -78.40703 37082 ft 439 kts 358°
2026-05-05 08:06 29.06809 -78.39901 37077 ft 439 kts 358°
2026-05-05 08:06 29.12876 -78.39093 37068 ft 439 kts 358°
2026-05-05 08:07 29.18956 -78.38274 37074 ft 440 kts 358°
2026-05-05 08:07 29.25047 -78.37447 37085 ft 441 kts 359°
2026-05-05 08:08 29.31146 -78.36621 37095 ft 442 kts 358°
2026-05-05 08:08 29.37236 -78.35803 37092 ft 439 kts 358°
2026-05-05 08:09 29.43309 -78.34982 37092 ft 439 kts 358°
2026-05-05 08:09 29.49373 -78.34345 37093 ft 431 kts 351°
2026-05-05 08:10 29.55322 -78.34758 37095 ft 428 kts 348°
2026-05-05 08:10 29.61275 -78.35211 37120 ft 429 kts 348°
2026-05-05 08:11 29.67199 -78.35647 37095 ft 426 kts 348°
2026-05-05 08:11 29.73124 -78.36077 37091 ft 426 kts 348°
2026-05-05 08:12 29.79046 -78.36517 37100 ft 427 kts 348°
2026-05-05 08:12 29.84975 -78.36953 37103 ft 427 kts 348°
2026-05-05 08:13 29.90871 -78.37399 37091 ft 426 kts 348°
2026-05-05 08:13 29.96764 -78.37848 37087 ft 424 kts 348°
2026-05-05 08:14 30.02662 -78.38285 37097 ft 425 kts 348°
2026-05-05 08:14 30.08577 -78.38716 37103 ft 426 kts 348°
2026-05-05 08:15 30.14522 -78.38930 37105 ft 435 kts 357°
2026-05-05 08:15 30.20569 -78.38037 37108 ft 438 kts 359°
2026-05-05 08:16 30.26615 -78.37134 37114 ft 438 kts 359°
2026-05-05 08:16 30.32666 -78.36229 37114 ft 438 kts 359°
2026-05-05 08:17 30.38724 -78.35325 37115 ft 439 kts 359°
2026-05-05 08:17 30.44775 -78.34319 37141 ft 441 kts
2026-05-05 08:18 30.50803 -78.32913 37100 ft 443 kts
2026-05-05 08:18 30.56830 -78.31386 37102 ft 443 kts
2026-05-05 08:19 30.62829 -78.29936 37110 ft 443 kts
2026-05-05 08:19 30.68877 -78.28534 37113 ft 443 kts
2026-05-05 08:20 30.74920 -78.27133 37099 ft 441 kts
2026-05-05 08:20 30.80936 -78.25719 37092 ft 441 kts
2026-05-05 08:21 30.86964 -78.24301 37091 ft 442 kts
2026-05-05 08:21 30.92958 -78.22888 37097 ft 442 kts
2026-05-05 08:22 30.98995 -78.21510 37149 ft 442 kts
2026-05-05 08:22 31.05046 -78.20189 37134 ft 442 kts
2026-05-05 08:23 31.11098 -78.18861 37125 ft 443 kts
2026-05-05 08:23 31.17151 -78.17520 37114 ft 443 kts
2026-05-05 08:24 31.23218 -78.16157 37122 ft 444 kts
2026-05-05 08:24 31.29278 -78.14794 37113 ft 442 kts
2026-05-05 08:25 31.35316 -78.13449 37112 ft 442 kts
2026-05-05 08:25 31.41366 -78.12093 37114 ft 443 kts
2026-05-05 08:26 31.47423 -78.10703 37115 ft 444 kts
2026-05-05 08:26 31.53479 -78.09226 37133 ft 445 kts
2026-05-05 08:27 31.59513 -78.07735 37105 ft 443 kts
2026-05-05 08:27 31.65554 -78.06266 37108 ft 444 kts
2026-05-05 08:28 31.71607 -78.04806 37123 ft 444 kts
2026-05-05 08:28 31.77665 -78.03349 37123 ft 445 kts
2026-05-05 08:29 31.83731 -78.01878 37135 ft 445 kts
2026-05-05 08:30 31.92845 -77.99648 37128 ft 446 kts
2026-05-05 08:30 31.98924 -77.98168 37130 ft 446 kts
2026-05-05 08:31 32.04995 -77.96691 37176 ft 446 kts
2026-05-05 08:31 32.11057 -77.95204 37110 ft 444 kts
2026-05-05 08:32 32.17118 -77.93722 37096 ft 446 kts
2026-05-05 08:32 32.23165 -77.92246 37098 ft 447 kts
2026-05-05 08:33 32.29268 -77.90746 37109 ft 448 kts
2026-05-05 08:33 32.35387 -77.89235 37139 ft 450 kts
2026-05-05 08:34 32.41520 -77.87718 37130 ft 450 kts
2026-05-05 08:34 32.47659 -77.86208 37129 ft 451 kts
2026-05-05 08:35 32.53805 -77.84698 37133 ft 451 kts
2026-05-05 08:35 32.59960 -77.83176 37151 ft 451 kts
2026-05-05 08:36 32.66112 -77.81652 37139 ft 451 kts
2026-05-05 08:36 32.72265 -77.80118 37135 ft 451 kts
2026-05-05 08:37 32.78417 -77.78588 37136 ft 451 kts
2026-05-05 08:37 32.84568 -77.77065 37136 ft 451 kts
2026-05-05 08:38 32.90718 -77.75536 37133 ft 451 kts
2026-05-05 08:38 32.96867 -77.74008 37133 ft 451 kts
2026-05-05 08:39 33.02978 -77.72479 37134 ft 452 kts
2026-05-05 08:39 33.09132 -77.70937 37146 ft 451 kts
2026-05-05 08:40 33.15279 -77.69406 37130 ft 451 kts
2026-05-05 08:40 33.20378 -77.68129 37130 ft 451 kts
2026-05-05 08:41 33.26528 -77.66581 37130 ft 451 kts
2026-05-05 08:41 33.32675 -77.65034 37134 ft 451 kts